Weather History for KLBL - November, 2012

Change the Weather History Date:

Wednesday, November 21, 2012

  Actual Average (KGUY) Record (KGUY)
Temperature  
Mean Temperature 54 °F 43 °F  
Max Temperature 75 °F 58 °F - ()
Min Temperature 33 °F 29 °F - ()
Degree Days  
Heating Degree Days 11 22  
Month to date heating degree days 365  
Since 1 July heating degree days 674  
Cooling Degree Days 0 0  
Month to date cooling degree days 0  
Year to date cooling degree days 1481  
Growing Degree Days 4 (Base 50)    
Moisture  
Dew Point 35 °F    
Average Humidity 48    
Maximum Humidity 75    
Minimum Humidity 25    
Precipitation  
Precipitation 0.00 in 0.01 in - ()
Month to date precipitation 0.40  
Year to date precipitation 18.53  
Snow  
Snow 0.00 in - - ()
Month to date snowfall  
Since 1 July snowfall  
Since 1 September snowfall  
Snow Depth -    
Sea Level Pressure  
Sea Level Pressure 30.06 in    
Wind  
Wind Speed 15 mph (SSW)    
Max Wind Speed 31 mph    
Max Gust Speed 38 mph    
Visibility 10 miles    
Events      
T = Trace of Precipitation, MM = Missing Value Source: NWS Daily Summary

Daily Weather History Graph

Daily Weather History Graph

Search for Another Location

Airport or City:

Trip Planner

Search our weather history database for the weather conditions in past years. The results will help you decide how hot, cold, wet, or windy it might be!

Date:

Astronomy

Nov. 21, 2012 Rise Set
Actual Time 7:29 AM CST 5:30 PM CST
Civil Twilight 7:01 AM CST 5:58 PM CST
Nautical Twilight 6:29 AM CST 6:29 PM CST
Astronomical Twilight 5:58 AM CST 7:01 PM CST
Moon 1:39 PM CST (11/21) 12:58 AM CST (11/21)
Length of Visible Light 10h 57m
Length of Day
10h 00m
First Quarter, 62% of the Moon is Illuminated
Nov 21
First Quarter
Nov 28
Full
Dec 6
Last Quarter
Dec 13
New
Dec 19
First Quarter

Hourly Weather History & Observations

Time (CST) Temp. Windchill Dew Point Humidity Pressure Visibility Wind Dir Wind Speed Gust Speed Precip Events Conditions
12:15 AM 44.6 °F 39.7 °F 28.4 °F 53% 30.19 in 10.0 mi SSW 9.2 mph - N/A   Clear
12:35 AM 41.0 °F 35.2 °F 26.6 °F 57% 30.19 in 10.0 mi SSW 9.2 mph - N/A   Clear
12:55 AM 44.6 °F 38.8 °F 28.4 °F 53% 30.19 in 10.0 mi SSW 11.5 mph - N/A   Clear
1:15 AM 42.8 °F 37.0 °F 28.4 °F 57% 30.18 in 10.0 mi South 10.4 mph - N/A   Clear
1:35 AM 39.2 °F 34.2 °F 26.6 °F 61% 30.18 in 10.0 mi South 6.9 mph - N/A   Clear
1:55 AM 37.4 °F 30.3 °F 26.6 °F 65% 30.17 in 10.0 mi SSW 10.4 mph - N/A   Clear
2:15 AM 39.2 °F 32.5 °F 28.4 °F 65% 30.17 in 10.0 mi SSW 10.4 mph - N/A   Clear
2:35 AM 39.2 °F 32.5 °F 26.6 °F 61% 30.17 in 10.0 mi SSW 10.4 mph - N/A   Clear
2:55 AM 37.4 °F 32.1 °F 26.6 °F 65% 30.17 in 10.0 mi SSW 6.9 mph - N/A   Clear
3:15 AM 35.6 °F 28.6 °F 24.8 °F 65% 30.17 in 10.0 mi SSW 9.2 mph - N/A   Clear
3:35 AM 35.6 °F 27.5 °F 26.6 °F 70% 30.16 in 10.0 mi SSW 11.5 mph - N/A   Clear
3:55 AM 39.2 °F 31.6 °F 28.4 °F 65% 30.16 in 10.0 mi SSW 12.7 mph - N/A   Clear
4:15 AM 37.4 °F 29.3 °F 24.8 °F 60% 30.16 in 10.0 mi South 12.7 mph - N/A   Clear
4:35 AM 44.6 °F 38.1 °F 33.8 °F 66% 30.15 in 10.0 mi SSW 13.8 mph - N/A   Clear
4:55 AM 42.8 °F 36.6 °F 30.2 °F 61% 30.15 in 10.0 mi SSW 11.5 mph - N/A   Clear
5:15 AM 39.2 °F 32.5 °F 26.6 °F 61% 30.15 in 10.0 mi South 10.4 mph - N/A   Clear
5:35 AM 35.6 °F 28.0 °F 26.6 °F 70% 30.15 in 10.0 mi South 10.4 mph - N/A   Clear
6:15 AM 33.8 °F 25.8 °F 26.6 °F 75% 30.14 in 10.0 mi South 10.4 mph - N/A   Clear
6:35 AM 33.8 °F 25.3 °F 26.6 °F 75% 30.14 in 10.0 mi South 11.5 mph - N/A   Clear
6:55 AM 33.8 °F 25.3 °F 26.6 °F 75% 30.14 in 10.0 mi South 11.5 mph - N/A   Clear
7:15 AM 33.8 °F 26.4 °F 26.6 °F 75% 30.14 in 10.0 mi South 9.2 mph - N/A   Clear
7:35 AM 33.8 °F 25.8 °F 26.6 °F 75% 30.14 in 10.0 mi South 10.4 mph - N/A   Clear
7:55 AM 33.8 °F 25.8 °F 26.6 °F 75% 30.14 in 10.0 mi South 10.4 mph - N/A   Clear
8:15 AM 37.4 °F 29.8 °F 28.4 °F 70% 30.15 in 10.0 mi South 11.5 mph - N/A   Clear
8:35 AM 39.2 °F 31.6 °F 30.2 °F 70% 30.14 in 10.0 mi South 12.7 mph - N/A   Clear
8:55 AM 44.6 °F 37.8 °F 33.8 °F 66% 30.14 in 10.0 mi South 15.0 mph - N/A   Clear
9:15 AM 48.2 °F - 35.6 °F 62% 30.15 in 10.0 mi South 16.1 mph - N/A   Clear
9:35 AM 50.0 °F - 35.6 °F 58% 30.15 in 10.0 mi South 17.3 mph - N/A   Clear
9:55 AM 53.6 °F - 35.6 °F 51% 30.15 in 10.0 mi SSW 18.4 mph - N/A   Clear
10:15 AM 57.2 °F - 37.4 °F 48% 30.14 in 10.0 mi SSW 20.7 mph 25.3 mph N/A   Clear
10:35 AM 60.8 °F - 35.6 °F 39% 30.14 in 10.0 mi SSW 19.6 mph 26.5 mph N/A   Clear
10:55 AM 62.6 °F - 35.6 °F 37% 30.13 in 10.0 mi SSW 21.9 mph 27.6 mph N/A   Clear
11:15 AM 66.2 °F - 35.6 °F 32% 30.12 in 10.0 mi SSW 24.2 mph 31.1 mph N/A   Clear
11:35 AM 66.2 °F - 33.8 °F 30% 30.11 in 10.0 mi SSW 20.7 mph 32.2 mph N/A   Clear
11:55 AM 68.0 °F - 33.8 °F 28% 30.09 in 10.0 mi SSW 24.2 mph 31.1 mph N/A   Clear
12:15 PM 69.8 °F - 32.0 °F 25% 30.08 in 10.0 mi SSW 24.2 mph 34.5 mph N/A   Clear
12:35 PM 69.8 °F - 33.8 °F 27% 30.06 in 10.0 mi SSW 20.7 mph 29.9 mph N/A   Clear
12:55 PM 71.6 °F - 33.8 °F 25% 30.05 in 10.0 mi SSW 29.9 mph 36.8 mph N/A   Clear
1:15 PM 71.6 °F - 33.8 °F 25% 30.04 in 10.0 mi SSW 26.5 mph 32.2 mph N/A   Clear
1:35 PM 73.4 °F - 35.6 °F 25% 30.02 in 10.0 mi SSW 31.1 mph 36.8 mph N/A   Clear
1:55 PM 73.4 °F - 35.6 °F 25% 30.02 in 10.0 mi SSW 29.9 mph 36.8 mph N/A   Clear
2:15 PM 75.2 °F - 37.4 °F 25% 30.01 in 10.0 mi SSW 31.1 mph 38.0 mph N/A   Clear
2:35 PM 75.2 °F - 37.4 °F 25% 30.00 in 10.0 mi SSW 28.8 mph 35.7 mph N/A   Clear
2:55 PM 73.4 °F - 37.4 °F 27% 29.99 in 10.0 mi SSW 29.9 mph 36.8 mph N/A   Clear
3:15 PM 71.6 °F - 37.4 °F 29% 29.99 in 10.0 mi SSW 25.3 mph 38.0 mph N/A   Clear
3:35 PM 71.6 °F - 37.4 °F 29% 29.98 in 10.0 mi SSW 26.5 mph 34.5 mph N/A   Clear
3:55 PM 75.2 °F - 39.2 °F 27% 29.97 in 10.0 mi SSW 28.8 mph 34.5 mph N/A   Clear
4:15 PM 73.4 °F - 39.2 °F 29% 29.97 in 10.0 mi SSW 29.9 mph 36.8 mph N/A   Clear
4:35 PM 71.6 °F - 39.2 °F 31% 29.96 in 10.0 mi SSW 23.0 mph 32.2 mph N/A   Clear
4:55 PM 71.6 °F - 39.2 °F 31% 29.96 in 10.0 mi South 23.0 mph 26.5 mph N/A   Clear
5:15 PM 69.8 °F - 39.2 °F 33% 29.95 in 10.0 mi South 19.6 mph 25.3 mph N/A   Clear
5:35 PM 68.0 °F - 39.2 °F 35% 29.95 in 10.0 mi South 18.4 mph - N/A   Clear
5:55 PM 66.2 °F - 39.2 °F 37% 29.95 in 10.0 mi South 15.0 mph - N/A   Clear
6:15 PM 64.4 °F - 39.2 °F 40% 29.95 in 10.0 mi South 13.8 mph - N/A   Clear
6:35 PM 64.4 °F - 39.2 °F 40% 29.95 in 10.0 mi South 15.0 mph - N/A   Clear
6:55 PM 62.6 °F - 39.2 °F 42% 29.94 in 10.0 mi South 13.8 mph - N/A   Clear
7:15 PM 60.8 °F - 39.2 °F 45% 29.94 in 10.0 mi South 9.2 mph - N/A   Clear
7:35 PM 60.8 °F - 39.2 °F 45% 29.94 in 10.0 mi South 12.7 mph - N/A   Clear
7:55 PM 62.6 °F - 41.0 °F 45% 29.93 in 10.0 mi South 17.3 mph - N/A   Clear
8:15 PM 66.2 °F - 42.8 °F 43% 29.94 in 10.0 mi SSW 25.3 mph 33.4 mph N/A   Clear
8:35 PM 66.2 °F - 42.8 °F 43% 29.94 in 10.0 mi South 24.2 mph 31.1 mph N/A   Clear
8:55 PM 66.2 °F - 41.0 °F 40% 29.93 in 10.0 mi SSW 24.2 mph 29.9 mph N/A   Clear
9:15 PM 66.2 °F - 42.8 °F 43% 29.93 in 10.0 mi South 24.2 mph 31.1 mph N/A   Clear
9:35 PM 66.2 °F - 42.8 °F 43% 29.93 in 10.0 mi South 23.0 mph 31.1 mph N/A   Clear
9:55 PM 64.4 °F - 42.8 °F 45% 29.93 in 10.0 mi SSW 21.9 mph 29.9 mph N/A   Clear
10:15 PM 64.4 °F - 42.8 °F 45% 29.92 in 10.0 mi SSW 24.2 mph 28.8 mph N/A   Clear
10:35 PM 64.4 °F - 42.8 °F 45% 29.92 in 10.0 mi SSW 24.2 mph 31.1 mph N/A   Clear
10:55 PM 64.4 °F - 42.8 °F 45% 29.92 in 10.0 mi SSW 19.6 mph 27.6 mph N/A   Clear
11:15 PM 62.6 °F - 42.8 °F 48% 29.92 in 10.0 mi SSW 20.7 mph 25.3 mph N/A   Clear
11:35 PM 62.6 °F - 41.0 °F 45% 29.91 in 10.0 mi SSW 18.4 mph 27.6 mph N/A   Clear
11:55 PM 62.6 °F - 41.0 °F 45% 29.90 in 10.0 mi SSW 20.7 mph 24.2 mph N/A   Clear